BREEZE-M DEB, 41543

Orbit data source: Space-Track

BREEZE-M DEB, 41543 is space debris in GEO originally from a launch on Sun, 13 Dec 2015 UTC launched from the Tyuratam Missile And Space Complex (TTMTR). Debris objects in space refer to the collection of defunct objects orbiting the Earth. Examples of debris include non-operational satellites, rocket bodies, and fragments generated from explosions, collisions, or faulty payload assembly.

Loading next visibility...
Identifier
41543, 2015-075D
Orbit
GEO
Country
Flag of CISCIS
Related business
Manufacturer
Khrunichev
Mission
Spacecraft
Bus & Motor
Unknown
Mass
Unknown
Launch date (UTC)
2015-12-13 (11 years ago)
Launch vehicle
Unknown
Launch site
Tyuratam Missile And Space Complex (TTMTR)
Object type
Payload
Rocket body
Debris
Shape & HBR
Unknown shape, 1.1 m
Radar Cross Section
Medium (>0.1 m² and <1 m²)

Expand to show TLE details & history
Last TLE update: 1 month ago

TLE from 1 month ago
0 BREEZE-M DEB
1 41543U 15075D   26132.05714814 -.00000029  00000-0  00000-0 0  9991
2 41543   8.3369  59.2363 0241348 159.4997 201.3963  1.05300587 39704
Epoch: 2026-05-12T01:22Z
TLE epoch observation values (Epoch: 2026-05-12T01:22:17.599Z)
Latitude
Longitude
168.73168°
Altitude
35,357.114 km
Speed
3.055 km/s
True Right ascension
03h 56m 34s
True Declination
0° 00' 00"
Sunlit
Object was in daylight at epoch
Visualization orbit readout
Latitude
Unknown
Longitude
Unknown
Altitude
Unknown
Speed
Unknown
Apparent Right ascension
Unknown
Apparent Declination
Unknown
Sunlit
N/A
Visualization observer readout
Local Sidereal Time
21:25:04
Azimuth
Unknown
Elevation
Unknown
Doppler factor
Unknown
Orbital elements
Apogee altitude
35,419.318 km
Perigee altitude
33,449.317 km
Semi-major axis
40,812.454 km
Eccentricity
0.02413
Inclination
8.3369°
RAAN
59.2363°
Arg. of periapsis
159.4997°
True anomaly
200.41499°
Mean anomaly
201.3963°
Eccentric anomaly
200.90293°
Mean motion
0.26324 °/min
Orbital period
1,367.57 mins
BSTAR
0
Loading maneuver chart data...
Computing Atmospheric mass density...
Loading historical data...
Loading historical data...
Loading historical data...
Loading historical data...
Loading historical data...
Loading historical data...
Loading historical data...

Documentation

Showing up to 5 results
|